Regional Weather Roundup
Issued by NWS

Home | Current Version | Previous Version | Graphics & Text | Print | Product List | Glossary On
Versions: 1 2 3 4 5 6 7 8 9 10 11 12 13 14 15 16 17 18 19 20 21 22 23 24 25 26 27 28 29 30 31 32 33 34 35 36 37 38 39 40 41 42 43 44 45 46 47 48 49 50
140
ASUS43 KIND 230659
RWRIN

WEATHER ROUNDUP FOR INDIANA
NATIONAL WEATHER SERVICE INDIANAPOLIS IN
200 AM EST FRI FEB 23 2018

NOTE: "FAIR" INDICATES FEW OR NO CLOUDS BELOW 12,000 FEET WITH NO
SIGNIFICANT WEATHER AND/OR OBSTRUCTIONS TO VISIBILITY.

* - STATION DOES NOT REPORT WEATHER SUCH AS PRECIPITATION OR FOG.

+ - STATION NOT QUALITY CONTROLLED BY THE NATIONAL WEATHER SERVICE.
    USE DATA WITH CAUTION...ESPECIALLY DEWPOINT AND RELATIVE
    HUMIDITY OBSERVATIONS.

INZ001>003-010>013-019-020-230800-
NORTHWEST INDIANA

CITY           SKY/WX    TMP DP  RH WIND       PRES   REMARKS
MONTICELLO +   CLOUDY    38  37  95 NE8       30.26F FOG     WCI  32

$$

LMZ046-743>745-230800-
SOUTHERN LAKE MICHIGAN

STATION/POSITION TIME  TEMP    WIND        PRES    WAVE
                       AIR SEA DIR/SP/G            HT
                 (UTC) (F)     (DEG/KT/KT) (MB)    (FT)
BURNS HARBOR     0640   38     150/ 10/ 18 1025.4F
MICHIGAN CITY    0630   37     120/ 11/ 17   N/A

$$

INZ004-005-014>016-021>024-230800-
NORTH CENTRAL INDIANA

CITY           SKY/WX    TMP DP  RH WIND       PRES   REMARKS
GOSHEN         CLOUDY    35  34  96 E9        30.33F FOG     WCI  28
PERU/GRISSOM   CLOUDY    37  37 100 E12       30.26F FOG     WCI  29
SOUTH BEND     CLOUDY    35  33  92 SE17      30.30F FOG     WCI  25
WARSAW +       CLOUDY    34  34 100 MISG      30.34R FOG

$$

INZ006>009-017-018-025>027-230800-
NORTHEAST INDIANA

CITY           SKY/WX    TMP DP  RH WIND       PRES   REMARKS
AUBURN +       CLOUDY    34  34 100 E3        30.32F FOG
FORT WAYNE     DRIZZLE   36  36 100 E9        30.31F FOG     WCI  29
KENDALLVILLE + CLOUDY    34  34 100 E6        30.35R FOG     WCI  29

$$

INZ028-029-035-036-043>045-051>053-230800-
WEST CENTRAL INDIANA

CITY           SKY/WX    TMP DP  RH WIND       PRES   REMARKS
GREENCASTLE +  CLOUDY    43  43 100 SE8       30.23F FOG
LAFAYETTE      CLOUDY    43  43 100 SE7       30.24F
TERRE HAUTE    CLOUDY    45  45 100 SE13      30.21F

$$

INZ030>032-037>040-046>048-054>057-064-065-230800-
CENTRAL INDIANA

CITY           SKY/WX    TMP DP  RH WIND       PRES   REMARKS
GREENWOOD *+   CLOUDY    42 -47   1 SE7       30.28F VSB 3/4
INDIANAPOLIS   DRZL/FOG  44  44 100 SE13      30.26F VSB 1
-EAGLE CREEK   CLOUDY    44  42  93 SE10      30.24F FOG
KOKOMO +       CLOUDY    38  37  97 E12       30.27F FOG     WCI  30
MT COMFORT *+  CLOUDY    43  43 100 SE9       30.28F
SHELBYVILLE    CLOUDY    45  43  93 SE6       30.31F FOG

$$

INZ033-034-041-042-049-050-058-059-230800-
EAST CENTRAL INDIANA

CITY           SKY/WX    TMP DP  RH WIND       PRES   REMARKS
MUNCIE         CLOUDY    42  41  96 SE6       30.28F FOG
RICHMOND +     FOG       41  41 100 SE8       30.32F VSB 1

$$

INZ060-061-067>069-081>083-085>088-230800-
SOUTHWEST INDIANA

CITY           SKY/WX    TMP DP  RH WIND       PRES   REMARKS
EVANSVILLE     HVY RAIN  49  49 100 E7        30.24F FOG
HUNTINGBURG +  LGT RAIN  48  48 100 E10       30.27F FOG

$$

INZ062-063-066-070>080-084-089>092-230800-
SOUTH CENTRAL AND SOUTHEAST INDIANA

CITY           SKY/WX    TMP DP  RH WIND       PRES   REMARKS
BLOOMINGTON    LGT RAIN  45  44  97 SE8       30.26F FOG
FRENCH LICK *+ CLOUDY    45 N/A N/A E7        30.28F
SEYMOUR +      RAIN      46  46 100 E3        30.31F VSB 3/4

$$





USA.gov is the U.S. government's official web portal to all federal, state and local government web resources and services.